| time (UTC) | temp C | wind direction | speed KPH | gust KPH | rain 1hr cm | rain 24hr cm | rain mn cm | humidity % | barometer mb |
| 20260506092542 | 6 | 0 | 0.0 | 1.6 | 0.00 | 0.08 | 0.00 | 90 | 1011.7 |
| 20260506092042 | 6 | 0 | 0.0 | 3.2 | 0.00 | 0.08 | 0.00 | 90 | 1011.6 |
| 20260506091548 | 6 | 0 | 0.0 | 3.2 | 0.00 | 0.08 | 0.00 | 90 | 1011.6 |
| 20260506091043 | 6 | 0 | 0.0 | 1.6 | 0.00 | 0.08 | 0.00 | 91 | 1011.6 |
| 20260506090544 | 6 | 0 | 0.0 | 1.6 | 0.00 | 0.08 | 0.00 | 91 | 1011.7 |
| 20260506090047 | 6 | 0 | 0.0 | 1.6 | 0.00 | 0.08 | 0.00 | 91 | 1011.6 |
| 20260506085540 | 6 | 0 | 0.0 | 1.6 | 0.00 | 0.08 | 0.00 | 91 | 1011.6 |
| 20260506085040 | 6 | 0 | 0.0 | 1.6 | 0.00 | 0.08 | 0.00 | 91 | 1011.7 |
| 20260506084550 | 6 | 0 | 0.0 | 1.6 | 0.00 | 0.08 | 0.00 | 91 | 1012.0 |
| 20260506084040 | 6 | 0 | 0.0 | 1.6 | 0.00 | 0.08 | 0.00 | 91 | 1011.9 |
| 20260506083541 | 6 | 0 | 0.0 | 1.6 | 0.00 | 0.08 | 0.00 | 91 | 1011.9 |
| 20260506083050 | 6 | 0 | 0.0 | 1.6 | 0.00 | 0.08 | 0.00 | 91 | 1012.0 |
| 20260506082542 | 6 | 0 | 0.0 | 1.6 | 0.00 | 0.08 | 0.00 | 91 | 1011.9 |
| 20260506082044 | 6 | 0 | 0.0 | 1.6 | 0.00 | 0.08 | 0.00 | 91 | 1011.8 |
| 20260506081549 | 6 | 0 | 0.0 | 1.6 | 0.00 | 0.08 | 0.00 | 91 | 1011.8 |
| 20260506081041 | 6 | 0 | 0.0 | 1.6 | 0.00 | 0.08 | 0.00 | 91 | 1011.7 |
| 20260506080541 | 6 | 265 | 0.0 | 1.6 | 0.00 | 0.08 | 0.00 | 90 | 1011.5 |
| 20260506073050 | 7 | 0 | 0.0 | 1.6 | 0.00 | 0.08 | 0.00 | 89 | 1011.3 |
| 20260506072538 | 7 | 0 | 0.0 | 1.6 | 0.00 | 0.08 | 0.00 | 89 | 1011.3 |
| 20260506072043 | 7 | 221 | 0.0 | 1.6 | 0.00 | 0.08 | 0.00 | 88 | 1011.3 |
| 20260506071606 | 7 | 0 | 0.0 | 1.6 | 0.00 | 0.08 | 0.00 | 88 | 1011.3 |
| 20260506071038 | 7 | 247 | 0.0 | 1.6 | 0.00 | 0.08 | 0.00 | 87 | 1011.4 |
| 20260506070541 | 7 | 0 | 0.0 | 1.6 | 0.00 | 0.08 | 0.00 | 87 | 1011.2 |
| 20260506062039 | 8 | 0 | 0.0 | 0.0 | 0.00 | 0.08 | 0.00 | 86 | 1011.1 |
| 20260506061543 | 8 | 0 | 0.0 | 0.0 | 0.00 | 0.08 | 0.00 | 86 | 1011.1 |
| 20260506061038 | 8 | 0 | 0.0 | 0.0 | 0.00 | 0.08 | 0.00 | 87 | 1010.9 |
| 20260506060541 | 8 | 0 | 0.0 | 0.0 | 0.00 | 0.08 | 0.00 | 87 | 1011.0 |
| 20260506051043 | 8 | 0 | 0.0 | 1.6 | 0.00 | 0.08 | 0.00 | 83 | 1011.0 |
| 20260506050542 | 8 | 0 | 0.0 | 1.6 | 0.00 | 0.08 | 0.00 | 83 | 1011.0 |
| 20260506045041 | 8 | 0 | 0.0 | 1.6 | 0.00 | 0.08 | 0.08 | 84 | 1010.9 |
| 20260506044555 | 9 | 0 | 0.0 | 1.6 | 0.00 | 0.08 | 0.08 | 84 | 1011.1 |
| 20260506044038 | 9 | 0 | 0.0 | 1.6 | 0.00 | 0.08 | 0.08 | 83 | 1010.9 |
| 20260506043545 | 9 | 0 | 0.0 | 1.6 | 0.00 | 0.08 | 0.08 | 83 | 1010.8 |
| 20260506043043 | 9 | 0 | 0.0 | 1.6 | 0.00 | 0.08 | 0.08 | 83 | 1010.8 |
| 20260506042540 | 9 | 178 | 0.0 | 1.6 | 0.00 | 0.08 | 0.08 | 83 | 1010.9 |
| 20260506042041 | 9 | 0 | 0.0 | 1.6 | 0.00 | 0.08 | 0.08 | 83 | 1010.9 |
| 20260506041600 | 9 | 178 | 0.0 | 1.6 | 0.00 | 0.08 | 0.08 | 83 | 1010.8 |
| 20260506041041 | 9 | 0 | 0.0 | 0.0 | 0.00 | 0.08 | 0.08 | 83 | 1010.7 |
| 20260506040542 | 9 | 0 | 0.0 | 0.0 | 0.00 | 0.08 | 0.08 | 83 | 1010.7 |
| 20260506040049 | 9 | 0 | 0.0 | 0.0 | 0.00 | 0.08 | 0.08 | 83 | 1010.7 |
| 20260506035544 | 9 | 0 | 0.0 | 0.0 | 0.00 | 0.13 | 0.08 | 83 | 1011.0 |
| 20260506035043 | 9 | 0 | 0.0 | 0.0 | 0.00 | 0.13 | 0.08 | 83 | 1011.0 |
| 20260506034549 | 9 | 0 | 0.0 | 0.0 | 0.00 | 0.13 | 0.08 | 83 | 1011.0 |
| 20260506034041 | 9 | 0 | 0.0 | 0.0 | 0.00 | 0.13 | 0.08 | 83 | 1011.0 |
| 20260506033544 | 9 | 0 | 0.0 | 0.0 | 0.00 | 0.13 | 0.08 | 83 | 1011.0 |
| 20260506033048 | 10 | 0 | 0.0 | 0.0 | 0.00 | 0.13 | 0.08 | 84 | 1011.0 |
| 20260506032542 | 10 | 0 | 0.0 | 0.0 | 0.00 | 0.13 | 0.08 | 83 | 1011.2 |
| 20260506032041 | 10 | 0 | 0.0 | 0.0 | 0.00 | 0.13 | 0.08 | 83 | 1010.9 |
| 20260506031552 | 10 | 0 | 0.0 | 0.0 | 0.00 | 0.13 | 0.08 | 84 | 1010.9 |
| 20260506031041 | 10 | 0 | 0.0 | 0.0 | 0.00 | 0.13 | 0.08 | 83 | 1010.9 |
| 20260506030541 | 10 | 0 | 0.0 | 1.6 | 0.00 | 0.13 | 0.08 | 82 | 1010.9 |
| 20260506030046 | 10 | 0 | 0.0 | 1.6 | 0.00 | 0.13 | 0.08 | 81 | 1011.0 |
| 20260506025543 | 10 | 0 | 0.0 | 1.6 | 0.00 | 0.66 | 0.08 | 82 | 1011.0 |
| 20260506025040 | 10 | 0 | 0.0 | 1.6 | 0.00 | 0.66 | 0.08 | 82 | 1010.9 |
| 20260506024552 | 10 | 0 | 0.0 | 1.6 | 0.00 | 0.66 | 0.08 | 82 | 1011.1 |
| 20260506024040 | 10 | 0 | 0.0 | 1.6 | 0.00 | 0.66 | 0.08 | 82 | 1011.0 |
| 20260506023540 | 10 | 0 | 0.0 | 1.6 | 0.00 | 0.66 | 0.08 | 81 | 1011.0 |
| 20260506023051 | 10 | 0 | 0.0 | 1.6 | 0.00 | 0.66 | 0.08 | 81 | 1010.8 |
| 20260506022540 | 10 | 0 | 0.0 | 1.6 | 0.00 | 0.66 | 0.08 | 81 | 1010.9 |
| 20260506022040 | 10 | 0 | 0.0 | 1.6 | 0.00 | 0.66 | 0.08 | 80 | 1010.8 |
| 20260506021554 | 10 | 0 | 0.0 | 1.6 | 0.00 | 0.66 | 0.08 | 80 | 1010.6 |
| 20260506021039 | 10 | 0 | 0.0 | 1.6 | 0.00 | 0.66 | 0.08 | 81 | 1010.4 |
| 20260506020540 | 10 | 0 | 0.0 | 1.6 | 0.00 | 0.66 | 0.08 | 81 | 1010.3 |
| 20260506020051 | 10 | 0 | 0.0 | 1.6 | 0.00 | 0.66 | 0.08 | 80 | 1010.2 |
| 20260506015541 | 10 | 0 | 0.0 | 1.6 | 0.00 | 0.66 | 0.08 | 78 | 1010.0 |
| 20260506015041 | 10 | 0 | 0.0 | 1.6 | 0.00 | 0.66 | 0.08 | 76 | 1010.0 |
| 20260506014555 | 10 | 0 | 0.0 | 1.6 | 0.00 | 0.66 | 0.08 | 77 | 1010.0 |
| 20260506014040 | 10 | 0 | 0.0 | 1.6 | 0.00 | 0.66 | 0.08 | 77 | 1010.1 |
| 20260506013539 | 10 | 0 | 0.0 | 1.6 | 0.00 | 0.66 | 0.08 | 77 | 1010.3 |
| 20260506013043 | 10 | 178 | 0.0 | 1.6 | 0.00 | 0.66 | 0.08 | 76 | 1010.2 |
| 20260506012540 | 10 | 0 | 0.0 | 1.6 | 0.00 | 0.66 | 0.08 | 76 | 1010.1 |
| 20260506012040 | 10 | 0 | 0.0 | 1.6 | 0.00 | 0.66 | 0.08 | 76 | 1009.9 |
| 20260506011552 | 10 | 0 | 0.0 | 1.6 | 0.00 | 0.66 | 0.08 | 77 | 1009.9 |
| 20260506011040 | 10 | 0 | 0.0 | 1.6 | 0.00 | 0.66 | 0.08 | 77 | 1009.9 |
| 20260506010543 | 10 | 0 | 0.0 | 1.6 | 0.00 | 0.66 | 0.08 | 75 | 1009.7 |
| 20260506010048 | 10 | 0 | 0.0 | 1.6 | 0.00 | 0.66 | 0.08 | 74 | 1009.6 |
| 20260506005542 | 10 | 0 | 0.0 | 1.6 | 0.00 | 0.66 | 0.08 | 74 | 1009.6 |
| 20260506005040 | 10 | 0 | 0.0 | 1.6 | 0.00 | 0.66 | 0.08 | 74 | 1009.7 |
| 20260506004550 | 11 | 0 | 0.0 | 1.6 | 0.00 | 0.66 | 0.08 | 75 | 1009.6 |
| 20260506004041 | 11 | 0 | 0.0 | 1.6 | 0.00 | 0.66 | 0.08 | 73 | 1009.5 |
| 20260506003540 | 11 | 0 | 0.0 | 1.6 | 0.00 | 0.66 | 0.08 | 70 | 1009.5 |
| 20260506003049 | 11 | 0 | 0.0 | 1.6 | 0.00 | 0.66 | 0.08 | 70 | 1009.4 |
| 20260506002544 | 11 | 0 | 0.0 | 1.6 | 0.00 | 0.66 | 0.08 | 70 | 1009.4 |
| 20260506002040 | 11 | 0 | 0.0 | 1.6 | 0.00 | 0.66 | 0.08 | 69 | 1009.3 |
| 20260506001614 | 11 | 0 | 0.0 | 1.6 | 0.00 | 0.66 | 0.08 | 70 | 1009.3 |
| 20260506001040 | 11 | 0 | 0.0 | 1.6 | 0.00 | 0.66 | 0.08 | 70 | 1009.3 |
| 20260506000541 | 11 | 0 | 0.0 | 1.6 | 0.00 | 0.66 | 0.08 | 69 | 1009.2 |
| 20260506000051 | 11 | 0 | 0.0 | 1.6 | 0.00 | 0.66 | 0.08 | 69 | 1009.3 |
| 20260505235541 | 11 | 0 | 0.0 | 1.6 | 0.00 | 0.66 | 0.08 | 67 | 1009.3 |
| 20260505235041 | 11 | 0 | 0.0 | 1.6 | 0.00 | 0.66 | 0.08 | 67 | 1009.3 |
| 20260505234552 | 11 | 0 | 0.0 | 1.6 | 0.00 | 0.66 | 0.08 | 67 | 1009.3 |
| 20260505234042 | 11 | 0 | 0.0 | 3.2 | 0.00 | 0.66 | 0.08 | 66 | 1009.4 |
| 20260505233540 | 11 | 0 | 0.0 | 3.2 | 0.00 | 0.66 | 0.08 | 65 | 1009.4 |
| 20260505233054 | 11 | 0 | 0.0 | 3.2 | 0.00 | 0.66 | 0.08 | 65 | 1009.5 |
| 20260505232540 | 11 | 0 | 0.0 | 1.6 | 0.00 | 0.66 | 0.08 | 66 | 1009.6 |
| 20260505232040 | 11 | 0 | 0.0 | 1.6 | 0.00 | 0.66 | 0.08 | 66 | 1009.5 |
| 20260505231554 | 11 | 0 | 0.0 | 1.6 | 0.00 | 0.66 | 0.08 | 66 | 1009.5 |
| 20260505231044 | 11 | 0 | 0.0 | 3.2 | 0.00 | 0.66 | 0.08 | 66 | 1009.5 |
| 20260505230540 | 11 | 247 | 0.0 | 3.2 | 0.00 | 0.66 | 0.08 | 65 | 1009.5 |
| 20260505230113 | 11 | 0 | 0.0 | 1.6 | 0.00 | 0.66 | 0.08 | 64 | 1009.5 |
| 20260505225541 | 11 | 0 | 0.0 | 3.2 | 0.00 | 0.66 | 0.08 | 64 | 1009.3 |
| 20260505225040 | 11 | 34 | 0.0 | 4.8 | 0.00 | 0.66 | 0.08 | 63 | 1009.4 |
| 20260505224550 | 11 | 68 | 0.0 | 6.4 | 0.00 | 0.66 | 0.08 | 62 | 1009.6 |
| 20260505224041 | 11 | 80 | 0.0 | 6.4 | 0.00 | 0.66 | 0.08 | 60 | 1009.5 |
| 20260505223540 | 11 | 0 | 0.0 | 6.4 | 0.00 | 0.66 | 0.08 | 60 | 1009.6 |
| 20260505223057 | 11 | 238 | 0.0 | 6.4 | 0.00 | 0.66 | 0.08 | 59 | 1009.5 |
| 20260505222540 | 11 | 41 | 0.0 | 6.4 | 0.00 | 0.66 | 0.08 | 59 | 1009.4 |
| 20260505222042 | 11 | 278 | 1.6 | 4.8 | 0.00 | 0.66 | 0.08 | 60 | 1009.4 |
| 20260505221554 | 11 | 0 | 0.0 | 6.4 | 0.00 | 0.66 | 0.08 | 60 | 1009.6 |
| 20260505221039 | 11 | 51 | 1.6 | 6.4 | 0.00 | 0.66 | 0.08 | 60 | 1009.6 |
| 20260505220545 | 11 | 0 | 0.0 | 6.4 | 0.00 | 0.66 | 0.08 | 61 | 1009.5 |
| 20260505220100 | 11 | 41 | 0.0 | 6.4 | 0.00 | 0.66 | 0.08 | 60 | 1009.5 |
| 20260505215539 | 11 | 265 | 1.6 | 6.4 | 0.00 | 0.66 | 0.08 | 61 | 1009.6 |
| 20260505215039 | 11 | 281 | 0.0 | 4.8 | 0.00 | 0.66 | 0.08 | 62 | 1009.5 |
| 20260505214600 | 11 | 256 | 0.0 | 4.8 | 0.00 | 0.66 | 0.08 | 64 | 1009.7 |
| 20260505214037 | 11 | 0 | 0.0 | 3.2 | 0.00 | 0.66 | 0.08 | 68 | 1009.6 |
| 20260505213539 | 11 | 0 | 0.0 | 3.2 | 0.00 | 0.66 | 0.08 | 71 | 1009.6 |
| 20260505213057 | 11 | 0 | 0.0 | 3.2 | 0.00 | 0.66 | 0.08 | 70 | 1009.5 |
| 20260505212541 | 11 | 41 | 0.0 | 1.6 | 0.00 | 0.66 | 0.08 | 70 | 1009.5 |
| 20260505212041 | 11 | 0 | 0.0 | 3.2 | 0.00 | 0.66 | 0.08 | 70 | 1009.6 |
| 20260505211544 | 11 | 298 | 0.0 | 3.2 | 0.00 | 0.66 | 0.08 | 71 | 1009.7 |
| 20260505211038 | 11 | 0 | 0.0 | 1.6 | 0.00 | 0.66 | 0.08 | 74 | 1009.7 |
| 20260505210540 | 11 | 0 | 0.0 | 1.6 | 0.00 | 0.66 | 0.08 | 73 | 1009.9 |
| 20260505210056 | 11 | 0 | 0.0 | 1.6 | 0.00 | 0.66 | 0.08 | 72 | 1010.0 |
| 20260505205541 | 11 | 0 | 0.0 | 3.2 | 0.00 | 0.66 | 0.08 | 72 | 1009.9 |
| 20260505205039 | 11 | 0 | 0.0 | 3.2 | 0.00 | 0.66 | 0.08 | 72 | 1010.1 |
| 20260505204550 | 11 | 0 | 0.0 | 3.2 | 0.00 | 0.66 | 0.08 | 73 | 1010.3 |
| 20260505204040 | 11 | 0 | 0.0 | 3.2 | 0.00 | 0.66 | 0.08 | 71 | 1010.3 |
| 20260505203537 | 11 | 0 | 0.0 | 3.2 | 0.00 | 0.66 | 0.08 | 68 | 1010.2 |
| 20260505203049 | 11 | 265 | 0.0 | 3.2 | 0.00 | 0.66 | 0.08 | 68 | 1010.3 |
| 20260505202538 | 11 | 0 | 0.0 | 3.2 | 0.00 | 0.66 | 0.08 | 72 | 1010.6 |
| 20260505202038 | 11 | 0 | 0.0 | 3.2 | 0.00 | 0.66 | 0.08 | 70 | 1010.6 |
| 20260505201552 | 11 | 0 | 0.0 | 4.8 | 0.00 | 0.66 | 0.08 | 70 | 1010.6 |
| 20260505201042 | 11 | 178 | 0.0 | 4.8 | 0.00 | 0.66 | 0.08 | 72 | 1010.6 |
| 20260505200540 | 10 | 41 | 0.0 | 3.2 | 0.00 | 0.66 | 0.08 | 72 | 1010.6 |
| 20260505200045 | 10 | 0 | 0.0 | 3.2 | 0.00 | 0.66 | 0.08 | 71 | 1010.8 |
| 20260505195540 | 10 | 254 | 0.0 | 6.4 | 0.00 | 0.66 | 0.08 | 72 | 1010.9 |
| 20260505195044 | 10 | 0 | 0.0 | 6.4 | 0.00 | 0.66 | 0.08 | 71 | 1011.1 |
| 20260505194550 | 10 | 260 | 0.0 | 4.8 | 0.00 | 0.66 | 0.08 | 73 | 1011.0 |
| 20260505194041 | 10 | 0 | 0.0 | 3.2 | 0.00 | 0.66 | 0.08 | 74 | 1010.9 |
| 20260505193541 | 10 | 0 | 0.0 | 3.2 | 0.00 | 0.66 | 0.08 | 73 | 1010.9 |
| 20260505193051 | 11 | 0 | 0.0 | 1.6 | 0.00 | 0.66 | 0.08 | 73 | 1010.9 |
| 20260505192546 | 11 | 0 | 0.0 | 1.6 | 0.00 | 0.66 | 0.08 | 73 | 1010.9 |
| 20260505192038 | 11 | 178 | 0.0 | 1.6 | 0.00 | 0.66 | 0.08 | 72 | 1011.0 |
| 20260505191556 | 11 | 0 | 0.0 | 1.6 | 0.00 | 0.66 | 0.08 | 73 | 1010.9 |
| 20260505191039 | 11 | 0 | 0.0 | 1.6 | 0.00 | 0.66 | 0.08 | 71 | 1010.9 |
| 20260505190541 | 11 | 0 | 0.0 | 6.4 | 0.00 | 0.66 | 0.08 | 70 | 1011.0 |
| 20260505190110 | 11 | 205 | 0.0 | 6.4 | 0.00 | 0.66 | 0.08 | 68 | 1011.0 |
| 20260505185542 | 11 | 0 | 0.0 | 6.4 | 0.00 | 0.66 | 0.08 | 66 | 1011.0 |
| 20260505185042 | 11 | 0 | 0.0 | 3.2 | 0.00 | 0.66 | 0.08 | 69 | 1011.2 |
| 20260505184559 | 11 | 0 | 0.0 | 4.8 | 0.00 | 0.66 | 0.08 | 66 | 1010.9 |
| 20260505184041 | 11 | 250 | 0.0 | 4.8 | 0.00 | 0.66 | 0.08 | 64 | 1010.9 |
| 20260505183544 | 11 | 0 | 0.0 | 9.7 | 0.00 | 0.66 | 0.08 | 64 | 1010.8 |
| 20260505183051 | 11 | 265 | 0.0 | 9.7 | 0.00 | 0.66 | 0.08 | 65 | 1011.0 |
| 20260505182540 | 11 | 0 | 0.0 | 4.8 | 0.00 | 0.66 | 0.08 | 67 | 1011.0 |
| 20260505182040 | 11 | 281 | 0.0 | 6.4 | 0.00 | 0.66 | 0.08 | 65 | 1011.0 |
| 20260505181550 | 11 | 9 | 0.0 | 6.4 | 0.00 | 0.66 | 0.08 | 63 | 1011.0 |
| 20260505181043 | 11 | 26 | 1.6 | 6.4 | 0.00 | 0.66 | 0.08 | 61 | 1011.0 |
| 20260505180540 | 11 | 0 | 0.0 | 6.4 | 0.00 | 0.66 | 0.08 | 63 | 1010.9 |
| 20260505180053 | 11 | 34 | 0.0 | 6.4 | 0.00 | 0.66 | 0.08 | 64 | 1011.0 |
| 20260505175540 | 11 | 0 | 0.0 | 4.8 | 0.00 | 0.66 | 0.08 | 64 | 1011.0 |
| 20260505175037 | 11 | 253 | 0.0 | 4.8 | 0.00 | 0.66 | 0.08 | 65 | 1011.0 |
| 20260505174551 | 11 | 253 | 0.0 | 8.0 | 0.00 | 0.66 | 0.08 | 67 | 1010.9 |
| 20260505174040 | 11 | 0 | 0.0 | 8.0 | 0.00 | 0.66 | 0.08 | 69 | 1010.9 |
| 20260505173540 | 11 | 250 | 1.6 | 8.0 | 0.00 | 0.66 | 0.08 | 69 | 1010.8 |
| 20260505173049 | 11 | 51 | 0.0 | 6.4 | 0.00 | 0.66 | 0.08 | 69 | 1010.9 |
| 20260505172541 | 11 | 34 | 1.6 | 6.4 | 0.00 | 0.66 | 0.08 | 69 | 1010.8 |
| 20260505172040 | 11 | 278 | 0.0 | 3.2 | 0.00 | 0.66 | 0.08 | 75 | 1010.6 |
| 20260505171548 | 11 | 231 | 0.0 | 3.2 | 0.00 | 0.66 | 0.08 | 77 | 1010.8 |
| 20260505171041 | 11 | 221 | 0.0 | 4.8 | 0.00 | 0.66 | 0.08 | 77 | 1010.6 |
| 20260505170540 | 11 | 0 | 0.0 | 4.8 | 0.00 | 0.66 | 0.08 | 80 | 1010.7 |
| 20260505170057 | 10 | 9 | 1.6 | 4.8 | 0.00 | 0.66 | 0.08 | 80 | 1010.6 |
| 20260505165540 | 10 | 178 | 0.0 | 4.8 | 0.00 | 0.66 | 0.08 | 83 | 1010.5 |
| 20260505165040 | 10 | 178 | 0.0 | 3.2 | 0.00 | 0.66 | 0.08 | 82 | 1010.5 |
| 20260505164549 | 10 | 232 | 0.0 | 4.8 | 0.00 | 0.66 | 0.08 | 81 | 1010.4 |
| 20260505164040 | 10 | 0 | 0.0 | 4.8 | 0.00 | 0.66 | 0.08 | 83 | 1010.5 |
| 20260505163537 | 10 | 61 | 0.0 | 3.2 | 0.00 | 0.66 | 0.08 | 83 | 1010.4 |
| 20260505163044 | 10 | 0 | 0.0 | 4.8 | 0.00 | 0.66 | 0.08 | 83 | 1010.6 |
| 20260505162541 | 9 | 291 | 0.0 | 4.8 | 0.00 | 0.66 | 0.08 | 83 | 1010.7 |
| 20260505162041 | 9 | 0 | 0.0 | 3.2 | 0.00 | 0.66 | 0.08 | 82 | 1010.5 |
| 20260505161553 | 9 | 309 | 0.0 | 3.2 | 0.00 | 0.66 | 0.08 | 82 | 1010.7 |
| 20260505161041 | 9 | 0 | 0.0 | 3.2 | 0.00 | 0.66 | 0.08 | 82 | 1010.2 |
| 20260505160542 | 9 | 51 | 0.0 | 3.2 | 0.00 | 0.66 | 0.08 | 82 | 1010.2 |
| 20260505153106 | 8 | 0 | 0.0 | 3.2 | 0.00 | 0.66 | 0.08 | 85 | 1010.0 |
| 20260505152539 | 8 | 9 | 0.0 | 6.4 | 0.00 | 0.66 | 0.08 | 84 | 1010.1 |
| 20260505152041 | 8 | 64 | 0.0 | 6.4 | 0.00 | 0.66 | 0.08 | 84 | 1010.0 |
| 20260505151552 | 8 | 243 | 1.6 | 6.4 | 0.00 | 0.66 | 0.08 | 85 | 1010.0 |
| 20260505151039 | 8 | 41 | 0.0 | 4.8 | 0.00 | 0.66 | 0.08 | 86 | 1010.2 |
| 20260505150539 | 8 | 153 | 0.0 | 6.4 | 0.00 | 0.66 | 0.08 | 86 | 1009.8 |
| 20260505150110 | 8 | 93 | 1.6 | 6.4 | 0.00 | 0.66 | 0.08 | 85 | 1009.7 |
| 20260505140539 | 7 | 119 | 0.0 | 3.2 | 0.00 | 0.66 | 0.08 | 87 | 1009.5 |
| 20260505125039 | 8 | 0 | 0.0 | 8.0 | 0.05 | 0.64 | 0.05 | 84 | 1009.9 |
| 20260505124554 | 8 | 247 | 0.0 | 8.0 | 0.05 | 0.64 | 0.05 | 84 | 1009.8 |
| 20260505124038 | 8 | 271 | 0.0 | 8.0 | 0.05 | 0.64 | 0.05 | 83 | 1009.9 |
| 20260505123539 | 8 | 0 | 1.6 | 8.0 | 0.03 | 0.61 | 0.03 | 83 | 1009.7 |
| 20260505123109 | 8 | 51 | 0.0 | 6.4 | 0.03 | 0.61 | 0.03 | 83 | 1009.9 |
| 20260505122540 | 8 | 31 | 0.0 | 6.4 | 0.03 | 0.61 | 0.03 | 82 | 1010.1 |
| 20260505122039 | 8 | 0 | 0.0 | 4.8 | 0.03 | 0.61 | 0.03 | 82 | 1010.4 |
| 20260505121552 | 9 | 298 | 1.6 | 4.8 | 0.03 | 0.61 | 0.03 | 82 | 1010.5 |
| 20260505121044 | 9 | 257 | 0.0 | 4.8 | 0.03 | 0.61 | 0.03 | 82 | 1010.7 |
| 20260505120540 | 9 | 252 | 1.6 | 6.4 | 0.03 | 0.61 | 0.03 | 82 | 1010.5 |
| 20260505120055 | 9 | 291 | 1.6 | 6.4 | 0.00 | 0.58 | 0.00 | 82 | 1010.5 |
| 20260505115538 | 10 | 309 | 0.0 | 6.4 | 0.00 | 0.58 | 0.00 | 81 | 1010.1 |
| 20260505115040 | 10 | 247 | 0.0 | 4.8 | 0.00 | 0.58 | 0.00 | 80 | 1009.6 |
| 20260505114559 | 10 | 0 | 0.0 | 4.8 | 0.00 | 0.58 | 0.00 | 79 | 1009.2 |
| 20260505114039 | 10 | 0 | 0.0 | 4.8 | 0.00 | 0.58 | 0.00 | 77 | 1008.7 |
| 20260505113540 | 10 | 0 | 0.0 | 4.8 | 0.00 | 0.58 | 0.00 | 78 | 1008.5 |
| 20260505113055 | 10 | 265 | 0.0 | 6.4 | 0.00 | 0.58 | 0.00 | 78 | 1008.5 |
| 20260505112540 | 10 | 247 | 0.0 | 6.4 | 0.00 | 0.58 | 0.00 | 77 | 1008.4 |
| 20260505112042 | 10 | 282 | 0.0 | 4.8 | 0.00 | 0.58 | 0.00 | 78 | 1008.0 |
| 20260505111601 | 10 | 9 | 1.6 | 4.8 | 0.00 | 0.58 | 0.00 | 77 | 1008.0 |
| 20260505111041 | 10 | 9 | 0.0 | 4.8 | 0.00 | 0.58 | 0.00 | 77 | 1007.8 |
| 20260505110541 | 10 | 0 | 0.0 | 3.2 | 0.00 | 0.58 | 0.00 | 78 | 1008.3 |
| 20260505102041 | 10 | 325 | 0.0 | 6.4 | 0.00 | 0.58 | 0.00 | 80 | 1007.7 |
| 20260505101549 | 10 | 250 | 0.0 | 3.2 | 0.00 | 0.58 | 0.00 | 82 | 1007.7 |
| 20260505101042 | 10 | 0 | 0.0 | 3.2 | 0.00 | 0.58 | 0.00 | 84 | 1007.7 |
| 20260505100541 | 10 | 178 | 0.0 | 3.2 | 0.00 | 0.58 | 0.00 | 84 | 1007.8 |
| 20260505100054 | 10 | 161 | 0.0 | 3.2 | 0.00 | 0.58 | 0.00 | 83 | 1007.5 |
| 20260505095540 | 10 | 0 | 0.0 | 4.8 | 0.00 | 0.58 | 0.00 | 82 | 1007.3 |
| 20260505095043 | 11 | 250 | 0.0 | 4.8 | 0.00 | 0.58 | 0.00 | 83 | 1007.3 |
| 20260505094551 | 11 | 0 | 0.0 | 1.6 | 0.00 | 0.58 | 0.00 | 83 | 1007.2 |
| 20260505094041 | 11 | 0 | 0.0 | 1.6 | 0.00 | 0.58 | 0.00 | 84 | 1007.2 |
| 20260505093544 | 11 | 178 | 0.0 | 3.2 | 0.00 | 0.58 | 0.00 | 82 | 1007.2 |
| 20260505093052 | 11 | 0 | 0.0 | 3.2 | 0.00 | 0.58 | 0.00 | 81 | 1007.1 |